Lid_Strength_Index
9 14 17 15 13 14 13 15 16 15 13 13 13 12 10 9 11 11 11 11 12 12 9 9 8 6 5 5 4 3 2 2 2 2 3 2 2 2 2 1 1 1 1 1
11 16 14 12 12 13 15 16 17 15 13 14 15 15 12 11 11 11 10 11 11 11 11 10 9 10 7 4 4 3 2 2 2 2 2 2 2 2 2 1 1 1 1 1
13 12 11 11 13 14 15 17 17 16 15 15 17 17 16 13 12 11 12 11 11 11 10 10 10 10 9 6 4 4 3 2 2 2 3 4 3 4 2 1 1 1 1 2
11 9 11 12 13 13 15 14 14 15 16 19 17 22 19 16 15 14 12 12 12 11 11 10 10 10 10 8 6 5 6 5 4 3 3 3 2 3 4 3 1 1 1 2
14 12 12 13 12 10 14 12 12 12 15 18 20 22 21 19 19 18 16 14 12 11 11 11 11 10 10 8 7 7 7 7 6 6 4 4 4 4 4 3 3 3 3 2
11 9 10 11 10 10 10 12 13 14 15 20 19 19 22 20 19 17 16 15 13 13 12 12 10 9 7 6 5 5 5 6 5 4 4 5 4 4 3 3 3 4 6 6
12 12 11 11 13 10 12 14 20 22 24 23 19 19 19 18 16 15 14 13 13 12 12 11 9 8 7 6 6 6 7 8 7 6 6 5 5 4 3 3 3 7 8 9
16 17 12 10 13 13 12 13 18 22 22 22 17 20 20 15 12 12 13 12 12 11 11 10 9 7 7 7 8 8 8 9 8 8 9 9 8 8 8 7 8 10 11 10
15 15 10 10 9 10 13 15 12 15 19 20 19 18 16 14 13 13 12 11 11 12 10 9 8 8 8 9 9 9 10 10 10 10 10 11 10 10 10 10 11 11 11 11
12 16 11 10 9 9 11 10 15 16 25 26 20 20 20 17 14 12 12 12 11 11 10 9 9 10 10 10 11 11 11 11 12 12 12 12 12 11 11 11 12 12 12 11
10 13 14 11 12 13 12 13 13 14 17 21 23 20 16 15 14 13 12 12 12 10 10 10 11 11 11 12 12 13 13 13 14 13 13 13 13 13 13 13 12 12 12 11
10 13 16 14 10 9 10 12 12 16 17 16 18 19 14 14 14 14 13 12 11 10 10 11 11 12 13 13 13 13 13 14 14 15 15 15 15 15 15 15 15 14 14 13
10 14 17 17 13 11 13 11 11 11 14 16 19 19 13 13 13 13 11 11 11 10 12 11 12 13 13 14 14 14 14 15 15 15 16 16 16 16 16 16 16 15 15 14
9 12 15 18 16 13 15 13 11 12 16 16 15 16 15 14 14 13 12 11 11 11 11 12 13 13 14 14 15 15 15 15 16 16 17 17 17 17 16 16 16 15 16 16
10 16 14 13 13 13 13 13 13 14 14 16 14 15 13 13 12 13 12 12 11 11 11 11 12 13 14 15 15 15 15 16 16 17 17 17 17 17 17 17 17 18 17 18
10 17 13 16 12 12 15 14 14 14 13 13 12 14 10 12 12 11 10 11 10 10 10 11 11 12 13 14 14 15 16 16 16 17 17 17 17 17 18 18 18 18 18 18
12 14 17 19 13 14 21 16 14 14 12 12 15 12 9 10 10 11 11 11 10 10 10 10 11 11 12 13 14 15 16 17 18 18 18 18 18 18 18 18 18 18 18 18
13 14 16 25 19 22 16 13 12 13 12 11 10 9 8 8 8 7 9 10 10 9 9 9 9 10 11 12 14 15 17 17 17 18 18 18 17 18 18 18 18 18 18 18
10 13 20 22 23 18 16 14 13 13 13 10 10 9 9 8 8 8 7 7 6 6 7 7 7 9 11 14 14 15 16 17 17 17 17 17 17 17 18 18 18 18 17 17
9 9 13 22 23 25 17 14 12 11 16 11 11 11 11 10 13 11 7 8 7 7 7 8 8 10 13 14 15 15 16 16 16 16 16 16 16 17 18 18 18 17 16 17
13 13 15 15 17 19 13 12 10 18 15 11 10 10 10 12 10 9 12 11 11 11 12 11 12 12 12 14 15 15 15 16 15 16 17 17 17 17 18 18 17 17 17 17
16 18 18 17 17 18 11 11 13 10 9 9 11 11 12 12 13 13 13 14 14 15 15 14 14 15 16 14 14 15 15 15 17 17 18 18 18 18 18 18 18 18 18 19
17 12 15 13 14 10 10 10 9 9 9 10 12 12 12 14 14 14 14 15 15 16 16 16 16 17 16 15 14 16 17 17 18 18 19 19 18 18 18 18 19 19 19 19
13 11 13 13 10 10 9 10 10 10 10 11 12 13 13 15 14 15 15 16 17 17 18 17 17 18 18 17 16 18 18 18 19 19 20 19 19 19 19 18 18 19 19 20
11 12 14 14 10 10 9 9 9 10 11 12 12 13 13 14 14 14 15 16 17 18 18 18 18 19 20 20 20 19 19 19 20 20 20 20 20 20 20 19 19 19 19 18
12 12 13 13 9 10 10 10 11 11 11 11 13 14 14 14 14 15 15 16 17 18 19 20 20 20 21 21 21 20 19 19 19 20 20 20 21 20 20 20 20 18 18 17